^^
Grace C. Lehan Memorial Weather Station Historical Data
Daily Summary for October 05, 2022 Units:  Metric    English   Both
Daily Weekly Monthly Yearly
  High: Low: Average:
Temperature: 16.2 °C 11.4 °C 13.3 °C
Dew Point: 14.8 °C 10.6 °C 12.3 °C
Humidity: 96% 86% 94%
Wind Speed: 14.5km/h 0km/h 1.3km/h
Wind Gust: 27.4km/h - -
Wind- - SW
Pressure: 1014.1 hPa 1011.1 hPa -
Precipitation: 0.51 mm    
 
 
Tabular Data for October 05, 2022
Time Temperature Dew Point Pressure Wind Wind Speed Wind Gust Humidity Rainfall Rate (Hourly) solar
00:09 12 °C 11.2 °C 1014.1 hPa NNW 0.3 km/h 3.2 km/h 95% 0.51 mm 0 W/m2
00:14 12 °C 11.2 °C 1014.1 hPa NW 1 km/h 9.7 km/h 95% 0.51 mm 0 W/m2
00:19 12 °C 11.2 °C 1014.1 hPa North 0.8 km/h 9.7 km/h 95% 0.51 mm 0 W/m2
00:24 12 °C 11.2 °C 1014.1 hPa North 0.8 km/h 9.7 km/h 95% 0.51 mm 0 W/m2
00:29 12 °C 11.2 °C 1014.1 hPa NNW 0.5 km/h 9.7 km/h 95% 0.51 mm 0 W/m2
00:34 12 °C 11.2 °C 1014.1 hPa NNW 1.8 km/h 11.3 km/h 95% 0.51 mm 0 W/m2
00:39 12 °C 11.2 °C 1013.8 hPa North 2.4 km/h 11.3 km/h 95% 0 mm 0 W/m2
00:44 12 °C 11.2 °C 1013.8 hPa North 1.1 km/h 11.3 km/h 95% 0.25 mm 0 W/m2
00:49 12 °C 11.2 °C 1013.4 hPa NNW 2.1 km/h 16.1 km/h 95% 0.25 mm 0 W/m2
00:54 12 °C 11.2 °C 1013.4 hPa North 2.4 km/h 17.7 km/h 95% 0.25 mm 0 W/m2
00:59 12 °C 11.2 °C 1013.1 hPa NNE 1.8 km/h 17.7 km/h 95% 0.25 mm 0 W/m2
01:04 12 °C 11.2 °C 1013.1 hPa ENE 1 km/h 17.7 km/h 95% 0.25 mm 0 W/m2
01:09 11.9 °C 11.2 °C 1013.1 hPa ENE 1.4 km/h 11.3 km/h 95% 0.25 mm 0 W/m2
01:14 12 °C 11.2 °C 1013.1 hPa NW 2.3 km/h 14.5 km/h 95% 0.25 mm 0 W/m2
01:19 12 °C 11.2 °C 1013.1 hPa NE 1.8 km/h 14.5 km/h 95% 0.25 mm 0 W/m2
01:24 12 °C 11.2 °C 1013.1 hPa NE 1.6 km/h 14.5 km/h 95% 0.25 mm 0 W/m2
01:29 12 °C 11.2 °C 1012.8 hPa NNE 1.3 km/h 16.1 km/h 95% 0.25 mm 0 W/m2
01:34 12.1 °C 11.3 °C 1012.8 hPa NNE 1.9 km/h 16.1 km/h 95% 0.25 mm 0 W/m2
01:39 12.1 °C 11.3 °C 1012.4 hPa NNW 1.4 km/h 16.1 km/h 95% 0.25 mm 0 W/m2
01:44 12.1 °C 11.3 °C 1012.4 hPa NNE 2.1 km/h 16.1 km/h 95% 0.25 mm 0 W/m2
01:49 12.1 °C 11.3 °C 1012.4 hPa NE 2.6 km/h 16.1 km/h 95% 0.25 mm 0 W/m2
01:54 12.1 °C 11.3 °C 1012.4 hPa North 2.3 km/h 20.9 km/h 95% 0.25 mm 0 W/m2
01:59 12.1 °C 11.3 °C 1012.4 hPa NE 1.3 km/h 20.9 km/h 95% 0.25 mm 0 W/m2
02:04 12.1 °C 11.3 °C 1012.4 hPa NE 0.8 km/h 20.9 km/h 95% 0.25 mm 0 W/m2
02:09 12.1 °C 11.3 °C 1012.8 hPa NNE 3.1 km/h 14.5 km/h 95% 0 mm 0 W/m2
02:14 12.1 °C 11.3 °C 1012.8 hPa NNE 1.6 km/h 14.5 km/h 95% 0 mm 0 W/m2
02:19 12.1 °C 11.3 °C 1012.8 hPa NNW 1.6 km/h 19.3 km/h 95% 0 mm 0 W/m2
02:24 12.1 °C 11.3 °C 1012.8 hPa NNW 2.7 km/h 20.9 km/h 95% 0 mm 0 W/m2
02:29 12.1 °C 11.3 °C 1013.1 hPa North 1.6 km/h 20.9 km/h 95% 0 mm 0 W/m2
02:34 12.1 °C 11.3 °C 1013.1 hPa NW 1.1 km/h 20.9 km/h 95% 0.25 mm 0 W/m2
02:39 12.1 °C 11.3 °C 1013.1 hPa NW 0.8 km/h 19.3 km/h 95% 0.25 mm 0 W/m2
02:44 12.1 °C 11.3 °C 1013.1 hPa North 1 km/h 19.3 km/h 95% 0.51 mm 0 W/m2
02:49 12.1 °C 11.3 °C 1013.1 hPa NNW 0.2 km/h 19.3 km/h 95% 0.51 mm 0 W/m2
02:54 12.1 °C 11.3 °C 1013.1 hPa NNW 1 km/h 19.3 km/h 95% 0.76 mm 0 W/m2
02:59 12.1 °C 11.3 °C 1013.1 hPa North 1.3 km/h 19.3 km/h 95% 0.76 mm 0 W/m2
03:04 12.1 °C 11.3 °C 1013.1 hPa NW 1.8 km/h 19.3 km/h 95% 1.02 mm 0 W/m2
03:09 12 °C 11.2 °C 1013.1 hPa North 1.3 km/h 14.5 km/h 95% 1.52 mm 0 W/m2
03:14 12 °C 11.2 °C 1013.1 hPa Calm   14.5 km/h 95% 2.29 mm 0 W/m2
03:19 11.9 °C 11.2 °C 1013.1 hPa NNW 1.4 km/h 14.5 km/h 95% 2.54 mm 0 W/m2
03:24 11.9 °C 11.1 °C 1013.1 hPa NW 0.2 km/h 14.5 km/h 95% 2.79 mm 0 W/m2
03:29 11.8 °C 11.1 °C 1012.8 hPa NW 1 km/h 14.5 km/h 95% 3.05 mm 0 W/m2
03:34 11.8 °C 11.1 °C 1013.1 hPa NW 0.3 km/h 14.5 km/h 95% 3.05 mm 0 W/m2
03:39 11.8 °C 11.1 °C 1013.1 hPa NW 1.4 km/h 9.7 km/h 95% 3.05 mm 0 W/m2
03:44 11.8 °C 11 °C 1013.1 hPa NW 1.9 km/h 12.9 km/h 95% 3.05 mm 0 W/m2
03:49 11.8 °C 11 °C 1013.1 hPa NW 1.9 km/h 12.9 km/h 95% 3.05 mm 0 W/m2
03:54 11.8 °C 11 °C 1013.1 hPa NW 2.3 km/h 17.7 km/h 95% 3.05 mm 0 W/m2
03:59 11.7 °C 10.9 °C 1012.8 hPa NNW 4 km/h 17.7 km/h 95% 3.05 mm 0 W/m2
04:00 11.7 °C 10.9 °C 1012.8 hPa NW 14.5 km/h 17.7 km/h 95% 3.05 mm 0 W/m2
04:09 11.6 °C 10.8 °C 1013.1 hPa NNW 2.1 km/h 16.1 km/h 95% 2.54 mm 0 W/m2
04:14 11.6 °C 10.8 °C 1013.1 hPa NNW 1.1 km/h 16.1 km/h 95% 2.54 mm 0 W/m2
04:19 11.6 °C 10.8 °C 1013.1 hPa NW 2.1 km/h 16.1 km/h 95% 2.54 mm 0 W/m2
04:24 11.6 °C 10.8 °C 1013.1 hPa NW 3.2 km/h 17.7 km/h 95% 2.54 mm 0 W/m2
04:29 11.6 °C 10.8 °C 1013.1 hPa NNW 0.6 km/h 17.7 km/h 95% 2.54 mm 0 W/m2
04:34 11.6 °C 10.8 °C 1013.1 hPa NNW 2.3 km/h 17.7 km/h 95% 2.54 mm 0 W/m2
04:39 11.6 °C 10.8 °C 1013.1 hPa NNW 1.1 km/h 11.3 km/h 95% 0.25 mm 0 W/m2
04:44 11.6 °C 10.8 °C 1013.1 hPa NNW 1.4 km/h 14.5 km/h 95% 0.25 mm 0 W/m2
04:49 11.6 °C 10.8 °C 1012.8 hPa North 0.8 km/h 14.5 km/h 95% 0.25 mm 0 W/m2
04:54 11.6 °C 10.8 °C 1013.1 hPa NNW 1.8 km/h 14.5 km/h 95% 0.25 mm 0 W/m2
04:59 11.6 °C 10.8 °C 1013.1 hPa NNW 2.9 km/h 16.1 km/h 95% 0.25 mm 0 W/m2
05:04 11.5 °C 10.7 °C 1013.1 hPa NW 2.4 km/h 16.1 km/h 95% 0.25 mm 0 W/m2
05:09 11.5 °C 10.7 °C 1013.1 hPa NW 4.3 km/h 16.1 km/h 95% 0.25 mm 0 W/m2
05:14 11.4 °C 10.7 °C 1013.1 hPa NNW 1.6 km/h 16.1 km/h 95% 0.25 mm 0 W/m2
05:19 11.4 °C 10.7 °C 1013.1 hPa NW 1.8 km/h 17.7 km/h 95% 0.51 mm 0 W/m2
05:24 11.4 °C 10.7 °C 1013.1 hPa NNW 2.1 km/h 20.9 km/h 95% 0.51 mm 0 W/m2
05:29 11.4 °C 10.7 °C 1013.1 hPa NW 2.4 km/h 20.9 km/h 95% 0.51 mm 0 W/m2
05:34 11.4 °C 10.6 °C 1013.1 hPa NNW 3.5 km/h 20.9 km/h 95% 0.51 mm 0 W/m2
05:39 11.4 °C 10.6 °C 1013.1 hPa NW 4 km/h 14.5 km/h 95% 0.51 mm 0 W/m2
05:44 11.4 °C 10.7 °C 1012.4 hPa NW 3.5 km/h 17.7 km/h 95% 0.51 mm 0 W/m2
05:49 11.4 °C 10.6 °C 1012.8 hPa NW 3.1 km/h 17.7 km/h 95% 0.76 mm 0 W/m2
05:54 11.4 °C 10.6 °C 1012.8 hPa NW 2.7 km/h 20.9 km/h 95% 0.76 mm 0 W/m2
05:59 11.4 °C 10.6 °C 1013.1 hPa NNW 1.4 km/h 20.9 km/h 95% 0.76 mm 0 W/m2
06:04 11.4 °C 10.6 °C 1013.1 hPa NW 1.9 km/h 20.9 km/h 95% 0.76 mm 0 W/m2
06:09 11.4 °C 10.6 °C 1013.1 hPa NW 3.2 km/h 27.4 km/h 95% 0.76 mm 0 W/m2
06:14 11.4 °C 10.6 °C 1013.1 hPa NW 4.5 km/h 27.4 km/h 95% 1.02 mm 0 W/m2
06:19 11.4 °C 10.6 °C 1012.8 hPa NNW 3.1 km/h 27.4 km/h 95% 1.27 mm 0 W/m2
06:24 11.4 °C 10.7 °C 1013.1 hPa North 1.4 km/h 27.4 km/h 95.2% 1.52 mm 0 W/m2
06:29 11.4 °C 10.7 °C 1012.8 hPa NW 2.4 km/h 27.4 km/h 95.8% 1.78 mm 0 W/m2
06:34 11.4 °C 10.8 °C 1012.8 hPa NW 1.8 km/h 27.4 km/h 96% 1.78 mm 0 W/m2
06:39 11.4 °C 10.8 °C 1012.8 hPa NNW 1.6 km/h 20.9 km/h 96% 1.78 mm 0 W/m2
06:44 11.4 °C 10.8 °C 1012.8 hPa NW 1 km/h 20.9 km/h 96% 2.03 mm 0 W/m2
06:49 11.4 °C 10.8 °C 1012.8 hPa NW 1.3 km/h 20.9 km/h 96% 2.29 mm 0 W/m2
06:54 11.4 °C 10.8 °C 1012.8 hPa WNW 1.8 km/h 20.9 km/h 96% 2.29 mm 0 W/m2
06:59 11.4 °C 10.8 °C 1012.8 hPa NNW 2.6 km/h 20.9 km/h 96% 2.54 mm 0 W/m2
07:04 11.4 °C 10.8 °C 1012.8 hPa NNW 1.4 km/h 20.9 km/h 96% 2.54 mm 0 W/m2
07:09 11.4 °C 10.8 °C 1012.8 hPa NW 2.4 km/h 17.7 km/h 96% 2.29 mm 0 W/m2
07:14 11.5 °C 10.9 °C 1012.8 hPa NNW 2.3 km/h 17.7 km/h 96% 2.29 mm 0 W/m2
07:19 11.5 °C 10.9 °C 1012.8 hPa NW 2.1 km/h 17.7 km/h 96% 2.29 mm 0 W/m2
07:24 11.5 °C 10.9 °C 1012.8 hPa North 0.2 km/h 17.7 km/h 96% 2.54 mm 0 W/m2
07:29 11.6 °C 10.9 °C 1012.8 hPa North 0.3 km/h 17.7 km/h 96% 2.54 mm 0 W/m2
07:34 11.6 °C 10.9 °C 1012.8 hPa NNW 1.8 km/h 17.7 km/h 96% 2.54 mm 7 W/m2
07:39 11.6 °C 10.9 °C 1013.1 hPa NNW 0.3 km/h 11.3 km/h 96% 1.52 mm 9 W/m2
07:44 11.6 °C 11 °C 1013.1 hPa NNW 1.3 km/h 11.3 km/h 96% 1.52 mm 12 W/m2
07:49 11.6 °C 11 °C 1013.1 hPa NNW 1.9 km/h 17.7 km/h 96% 1.52 mm 26 W/m2
07:54 11.7 °C 11.1 °C 1012.8 hPa NNW 0.5 km/h 17.7 km/h 96% 1.52 mm 39 W/m2
07:59 11.7 °C 11.1 °C 1012.8 hPa NNE 1.1 km/h 17.7 km/h 96% 1.52 mm 56 W/m2
08:09 11.7 °C 11.1 °C 1012.8 hPa North 2.3 km/h 16.1 km/h 96% 0.51 mm 62 W/m2
08:14 11.7 °C 11.1 °C 1012.8 hPa NE 0.6 km/h 16.1 km/h 96% 0.51 mm 83 W/m2
08:19 11.7 °C 11.1 °C 1012.8 hPa NNW 1 km/h 16.1 km/h 96% 0.51 mm 88 W/m2
08:24 11.8 °C 11.2 °C 1012.8 hPa NNW 1.9 km/h 16.1 km/h 96% 0.51 mm 88 W/m2
08:29 11.8 °C 11.2 °C 1012.8 hPa NNE 2.6 km/h 19.3 km/h 96% 0.51 mm 58 W/m2
08:34 11.8 °C 11.2 °C 1012.8 hPa NE 0.3 km/h 19.3 km/h 96% 0.51 mm 88 W/m2
08:39 11.8 °C 11.2 °C 1012.8 hPa North 2.6 km/h 19.3 km/h 96% 0 mm 93 W/m2
08:44 11.8 °C 11.2 °C 1012.8 hPa NNE 1.8 km/h 19.3 km/h 96% 0.25 mm 121 W/m2
08:49 11.8 °C 11.2 °C 1012.8 hPa NE 1.4 km/h 19.3 km/h 96% 0.25 mm 127 W/m2
08:54 11.9 °C 11.3 °C 1013.1 hPa NNE 2.4 km/h 19.3 km/h 96% 0.25 mm 104 W/m2
08:59 11.8 °C 11.2 °C 1013.1 hPa NE 2.3 km/h 19.3 km/h 96% 0.25 mm 83 W/m2
09:04 11.8 °C 11.2 °C 1013.1 hPa NNE 2.1 km/h 19.3 km/h 96% 0.25 mm 81 W/m2
09:09 11.9 °C 11.3 °C 1013.1 hPa North 2.3 km/h 16.1 km/h 96% 0.25 mm 81 W/m2
09:14 11.9 °C 11.3 °C 1013.1 hPa ENE 1.6 km/h 16.1 km/h 96% 0.25 mm 62 W/m2
09:19 12 °C 11.3 °C 1013.1 hPa NNE 2.4 km/h 16.1 km/h 96% 0.25 mm 63 W/m2
09:24 12 °C 11.4 °C 1013.1 hPa ENE 2.7 km/h 16.1 km/h 96% 0.25 mm 51 W/m2
09:29 12 °C 11.4 °C 1013.1 hPa NE 1.9 km/h 16.1 km/h 96% 0.25 mm 44 W/m2
09:34 12 °C 11.4 °C 1013.1 hPa NNE 1.6 km/h 16.1 km/h 96% 0.25 mm 44 W/m2
09:39 12.1 °C 11.4 °C 1013.1 hPa NNE 1.1 km/h 14.5 km/h 96% 0.25 mm 60 W/m2
09:44 12.1 °C 11.4 °C 1013.1 hPa NNE 1.1 km/h 14.5 km/h 96% 0.25 mm 69 W/m2
09:49 12.1 °C 11.5 °C 1013.1 hPa NE 1.9 km/h 14.5 km/h 96% 0.25 mm 70 W/m2
09:54 12.2 °C 11.6 °C 1013.1 hPa NNE 0.8 km/h 14.5 km/h 96% 0.25 mm 70 W/m2
09:59 12.2 °C 11.6 °C 1013.1 hPa North 0.5 km/h 14.5 km/h 96% 0.25 mm 49 W/m2
10:04 12.2 °C 11.6 °C 1013.1 hPa NE 1 km/h 14.5 km/h 96% 0.25 mm 47 W/m2
10:09 12.2 °C 11.6 °C 1013.1 hPa NNE 1.3 km/h 8 km/h 96% 0.25 mm 54 W/m2
10:14 12.2 °C 11.6 °C 1013.1 hPa NNE 1.4 km/h 19.3 km/h 96% 0.51 mm 77 W/m2
10:19 12.2 °C 11.6 °C 1013.1 hPa NNE 1.6 km/h 19.3 km/h 96% 0.51 mm 95 W/m2
10:24 12.3 °C 11.6 °C 1013.1 hPa NE 1.3 km/h 19.3 km/h 96% 0.51 mm 102 W/m2
10:29 12.3 °C 11.7 °C 1013.1 hPa NNE 1 km/h 19.3 km/h 96% 0.51 mm 104 W/m2
10:34 12.4 °C 11.8 °C 1013.1 hPa NE 1.6 km/h 19.3 km/h 96% 0.51 mm 104 W/m2
10:38 12.4 °C 11.8 °C 1013.1 hPa NE 1.8 km/h 9.7 km/h 96% 0.51 mm 113 W/m2
11:00 12.7 °C 12.1 °C 1013.1 hPa NW 1.6 km/h 17.7 km/h 96% 0 mm 118 W/m2
11:30 13.2 °C 12.4 °C 1012.8 hPa ENE 1.6 km/h 19.3 km/h 95% 0 mm 187 W/m2
12:04 13.7 °C 12.8 °C 1012.4 hPa SSE 1.4 km/h 8 km/h 94.3% 0 mm 169 W/m2
12:09 13.7 °C 12.8 °C 1012.4 hPa NE 1.4 km/h 11.3 km/h 94% 0 mm 209 W/m2
12:14 13.8 °C 12.8 °C 1012.4 hPa North 1.3 km/h 19.3 km/h 94% 0 mm 267 W/m2
12:19 13.9 °C 13 °C 1012.4 hPa NNW 3.2 km/h 19.3 km/h 94% 0 mm 304 W/m2
12:24 14.1 °C 13.1 °C 1012.1 hPa NNE 1.9 km/h 19.3 km/h 94% 0 mm 304 W/m2
12:29 14.1 °C 13.1 °C 1012.4 hPa NNE 0.8 km/h 19.3 km/h 93.2% 0 mm 206 W/m2
12:34 14.2 °C 13.1 °C 1012.1 hPa NE 0.8 km/h 19.3 km/h 93% 0.76 mm 165 W/m2
12:39 14.2 °C 13.1 °C 1012.1 hPa NNE 1.8 km/h 9.7 km/h 93% 0.76 mm 160 W/m2
12:44 14.3 °C 13.2 °C 1012.1 hPa Calm   9.7 km/h 93% 0.76 mm 148 W/m2
12:49 14.3 °C 13.1 °C 1012.1 hPa Calm   9.7 km/h 92.7% 0.76 mm 139 W/m2
12:54 14.3 °C 13.1 °C 1012.1 hPa NE 1.9 km/h 17.7 km/h 92.3% 0.76 mm 118 W/m2
12:59 14.3 °C 13 °C 1012.1 hPa NNW 1.8 km/h 19.3 km/h 92% 0.76 mm 121 W/m2
13:04 14.3 °C 13 °C 1011.7 hPa NNW 0.3 km/h 19.3 km/h 92% 0.76 mm 134 W/m2
13:09 14.3 °C 13.1 °C 1011.7 hPa NNW 1 km/h 16.1 km/h 92% 0 mm 146 W/m2
13:14 14.4 °C 13.1 °C 1011.7 hPa WNW 0.6 km/h 16.1 km/h 92% 0 mm 132 W/m2
13:18 14.4 °C 13.2 °C 1011.7 hPa NW 2.1 km/h 16.1 km/h 92% 0 mm 148 W/m2
13:30 14.6 °C 13.3 °C 1011.4 hPa NNW 1.6 km/h 16.1 km/h 92% 0 mm 136 W/m2
14:00 15.5 °C 14.1 °C 1011.1 hPa Calm   9.7 km/h 91% 0 mm 183 W/m2
14:30 15.7 °C 13.9 °C 1011.1 hPa East 1.6 km/h 17.7 km/h 89% 0 mm 116 W/m2
15:00 15.8 °C 13.8 °C 1011.4 hPa Calm   11.3 km/h 88% 0 mm 97 W/m2
15:30 16.2 °C 14 °C 1011.4 hPa ENE 1.6 km/h 17.7 km/h 87% 0 mm 125 W/m2
16:04 16.2 °C 13.9 °C 1011.4 hPa NNE 0.5 km/h 3.2 km/h 86% 0 mm 60 W/m2
16:09 16.2 °C 13.9 °C 1011.4 hPa NE 0.3 km/h 4.8 km/h 86% 0 mm 54 W/m2
16:14 16.2 °C 13.9 °C 1011.4 hPa NE 0.2 km/h 4.8 km/h 86% 0 mm 51 W/m2
16:19 16.2 °C 13.9 °C 1011.7 hPa NE 0.3 km/h 4.8 km/h 86% 0 mm 53 W/m2
16:24 16.2 °C 13.9 °C 1011.7 hPa NW 0.6 km/h 6.4 km/h 86% 0 mm 32 W/m2
16:29 16.2 °C 13.9 °C 1011.7 hPa NNW 1.1 km/h 6.4 km/h 86.2% 0 mm 25 W/m2
16:34 16.2 °C 13.9 °C 1011.7 hPa NNW 0.2 km/h 6.4 km/h 86.5% 0 mm 21 W/m2
16:39 16.1 °C 13.8 °C 1011.7 hPa Calm   4.8 km/h 86.1% 0 mm 16 W/m2
16:44 16.1 °C 13.9 °C 1011.7 hPa NNW 0.5 km/h 6.4 km/h 86.9% 0 mm 12 W/m2
16:49 16.1 °C 13.9 °C 1011.7 hPa NNW 0.2 km/h 6.4 km/h 87% 0 mm 9 W/m2
16:54 16.1 °C 13.9 °C 1011.7 hPa Calm   6.4 km/h 87% 0 mm 5 W/m2
16:59 16.1 °C 13.9 °C 1011.7 hPa Calm   6.4 km/h 87% 0 mm 5 W/m2
17:04 16.1 °C 13.9 °C 1011.7 hPa North 0.2 km/h 6.4 km/h 87% 0 mm 5 W/m2
17:09 16.1 °C 13.9 °C 1011.7 hPa Calm   3.2 km/h 87.1% 0 mm 7 W/m2
17:14 16.1 °C 14.1 °C 1011.7 hPa Calm   3.2 km/h 88% 0 mm 5 W/m2
17:19 16.1 °C 14.1 °C 1011.7 hPa NNW 0.3 km/h 8 km/h 88% 0 mm 5 W/m2
17:24 16.1 °C 14.1 °C 1011.7 hPa Calm   8 km/h 88% 0 mm 5 W/m2
17:29 16.1 °C 14.2 °C 1011.7 hPa Calm   8 km/h 89% 0.25 mm 5 W/m2
17:34 16 °C 14.2 °C 1012.1 hPa Calm   8 km/h 89% 0.25 mm 5 W/m2
17:39 15.9 °C 14.2 °C 1012.1 hPa Calm     89.6% 0.25 mm 7 W/m2
17:44 15.9 °C 14.3 °C 1012.1 hPa Calm     90% 0.25 mm 7 W/m2
17:49 15.9 °C 14.3 °C 1012.1 hPa Calm     90.3% 0.51 mm 9 W/m2
17:54 15.8 °C 14.3 °C 1012.1 hPa Calm     90.8% 1.27 mm 7 W/m2
17:59 15.8 °C 14.3 °C 1012.1 hPa Calm     91% 1.78 mm 5 W/m2
18:04 15.7 °C 14.3 °C 1012.1 hPa Calm     91% 2.29 mm 0 W/m2
18:09 15.7 °C 14.4 °C 1012.1 hPa Calm     91.8% 2.79 mm 0 W/m2
18:14 15.7 °C 14.4 °C 1012.1 hPa Calm     92% 3.81 mm 0 W/m2
18:19 15.6 °C 14.3 °C 1012.4 hPa Calm     92% 3.81 mm 0 W/m2
18:24 15.6 °C 14.3 °C 1012.4 hPa Calm     92% 4.06 mm 0 W/m2
18:29 15.6 °C 14.3 °C 1012.1 hPa Calm     92.4% 4.06 mm 0 W/m2
18:34 15.5 °C 14.4 °C 1012.4 hPa Calm     93% 4.06 mm 0 W/m2
18:39 15.5 °C 14.4 °C 1012.4 hPa Calm     93% 4.06 mm 0 W/m2
18:44 15.5 °C 14.4 °C 1012.4 hPa Calm     93% 4.06 mm 0 W/m2
18:49 15.5 °C 14.4 °C 1012.4 hPa Calm     93% 4.06 mm 0 W/m2
18:54 15.5 °C 14.4 °C 1012.4 hPa Calm     93% 4.06 mm 0 W/m2
18:59 15.4 °C 14.3 °C 1012.4 hPa Calm     93% 4.06 mm 0 W/m2
19:04 15.4 °C 14.4 °C 1012.8 hPa Calm     93.4% 4.06 mm 0 W/m2
19:09 15.4 °C 14.5 °C 1012.8 hPa Calm     94% 2.54 mm 0 W/m2
19:14 15.4 °C 14.4 °C 1012.8 hPa Calm     94% 2.54 mm 0 W/m2
19:19 15.4 °C 14.4 °C 1012.8 hPa Calm     94% 2.54 mm 0 W/m2
19:30 15.3 °C 14.4 °C 1012.8 hPa Calm     94% 0 mm 0 W/m2
20:04 15.2 °C 14.4 °C 1012.8 hPa Calm     95% 0.51 mm 0 W/m2
20:09 15.2 °C 14.4 °C 1012.8 hPa Calm     95% 0.51 mm 0 W/m2
20:14 15.2 °C 14.4 °C 1012.8 hPa Calm     95% 0.51 mm 0 W/m2
20:19 15.2 °C 14.4 °C 1012.8 hPa Calm     94.7% 0.51 mm 0 W/m2
20:24 15.2 °C 14.3 °C 1012.8 hPa Calm     94% 0.51 mm 0 W/m2
20:29 15.2 °C 14.4 °C 1012.8 hPa Calm     94.8% 0.51 mm 0 W/m2
20:34 15.2 °C 14.4 °C 1012.8 hPa Calm     95% 4.57 mm 0 W/m2
20:39 15.2 °C 14.4 °C 1012.8 hPa Calm     95% 4.57 mm 0 W/m2
20:44 15.2 °C 14.4 °C 1012.8 hPa Calm     95% 4.83 mm 0 W/m2
20:49 15.2 °C 14.4 °C 1012.8 hPa Calm   1.6 km/h 95% 4.83 mm 0 W/m2
20:54 15.2 °C 14.4 °C 1012.8 hPa Calm   1.6 km/h 95% 4.83 mm 0 W/m2
20:59 15.2 °C 14.4 °C 1012.4 hPa NNW 1 km/h 6.4 km/h 95% 4.83 mm 0 W/m2
21:04 15.2 °C 14.4 °C 1012.4 hPa NNW 1.3 km/h 8 km/h 95% 4.83 mm 0 W/m2
21:09 15.2 °C 14.3 °C 1012.4 hPa NNW 2.6 km/h 8 km/h 95% 0.51 mm 0 W/m2
21:14 15.1 °C 14.3 °C 1012.1 hPa NW 1 km/h 8 km/h 95% 0.51 mm 0 W/m2
21:19 15.1 °C 14.3 °C 1012.1 hPa NNW 0.8 km/h 8 km/h 95% 0.51 mm 0 W/m2
21:24 15.2 °C 14.4 °C 1012.1 hPa NNW 1.8 km/h 14.5 km/h 95% 1.02 mm 0 W/m2
21:29 15.2 °C 14.4 °C 1012.4 hPa NW 1.1 km/h 14.5 km/h 95% 1.27 mm 0 W/m2
21:34 15.2 °C 14.4 °C 1012.4 hPa NW 0.6 km/h 14.5 km/h 95% 1.52 mm 0 W/m2
21:39 15.2 °C 14.4 °C 1012.4 hPa North 1 km/h 9.7 km/h 95% 1.52 mm 0 W/m2
21:44 15.2 °C 14.4 °C 1012.4 hPa NNW 0.6 km/h 9.7 km/h 95% 1.78 mm 0 W/m2
21:47 15.3 °C 14.4 °C 1012.4 hPa NW 0.5 km/h 9.7 km/h 95% 1.78 mm 0 W/m2
22:00 15.3 °C 14.5 °C 1012.4 hPa Calm   11.3 km/h 95% 0.25 mm 0 W/m2
22:30 15.3 °C 14.7 °C 1012.4 hPa Calm   9.7 km/h 96% 0 mm 0 W/m2
23:00 15.4 °C 14.8 °C 1012.4 hPa Calm   14.5 km/h 96% 0 mm 0 W/m2
23:30 15.4 °C 14.8 °C 1011.7 hPa NNW 3.2 km/h 22.5 km/h 96% 0 mm 0 W/m2
Hartford County Weather
Compliments of Weather Underground - 4 mb